Location: Bílinka
(49.3579°N, 14.3767°E)
Time: 00:42:29
(UTC+00:00)

COSMOS 2455 - Pass Details

Date: 28 January 2023
Orbit: 898 x 911 km, 67.1° (Epoch: 31 March)

Event Time Altitude Azimuth Distance (km) Brightness Sun altitude
Rises 18:16:03 0° 233° (SW) 3,516 6.8 -23.4°
Reaches altitude 10° 18:18:38 10° 239° (WSW) 2,580 6.0 -23.9°
Maximum altitude 18:24:26 49° 314° (NW) 1,158 3.6 -24.8°
Enters shadow 18:28:03 23° 19° (NNE) 1,855 4.3 -25.4°
